Regional Weather Roundup
Issued by NWS

Home | Current Version | Previous Version | Text Only | Print | Product List | Glossary Off
Versions: 1 2 3 4 5 6 7 8 9 10 11 12 13 14 15 16 17 18 19 20 21 22 23 24 25 26 27 28 29 30 31 32 33 34 35 36 37 38 39 40 41 42 43 44 45 46 47 48 49 50

000
ASUS43 KMKX 162000
RWRWI

WISCONSIN REGIONAL WEATHER ROUNDUP
NATIONAL WEATHER SERVICE MILWAUKEE/SULLIVAN WI
200 PM CST MON JAN 16 2017

NOTE: "FAIR" INDICATES FEW OR NO CLOUDS BELOW 12,000 FEET WITH NO
SIGNIFICANT WEATHER AND/OR OBSTRUCTIONS TO VISIBILITY.

WIZ001-002-006>008-014>016-023>028-162100-
NORTHWEST WISCONSIN

CITY           SKY/WX    TMP DP  RH WIND       PRES   REMARKS
SUPERIOR ARPT  CLOUDY    31  18  59 CALM      30.10F
ASHLAND        CLOUDY    36  20  52 CALM      30.09F
HAYWARD        CLOUDY    30  20  66 S8        30.08F WCI  22
SIREN          CLOUDY    31  18  57 CALM      30.09F
CUMBERLAND     CLOUDY    21  19  93 CALM      30.08F
RICE LAKE      CLOUDY    22  15  74 CALM      30.12F
CHETEK         CLOUDY    25  17  69 E3        30.11F
LADYSMITH      CLOUDY    24  18  77 CALM      30.12F
EAU CLAIRE     CLOUDY    28  17  63 NE7       30.09F WCI  21
MENOMONIE      CLOUDY    25  17  72 N3        30.10F
NEW RICHMOND   CLOUDY    27  17  65 E5        30.09F WCI  22
OSCEOLA        CLOUDY    29  18  62 E3        30.12F
$$

WIZ003>005-009-010-017-018-162100-
NORTH CENTRAL WISCONSIN

CITY           SKY/WX    TMP DP  RH WIND       PRES   REMARKS
MANITOWISH WTR CLOUDY    29  17  60 S3        30.08F
ARBOR VITAE    CLOUDY    32  20  62 CALM      30.09F
WOODRUFF       CLOUDY    32  20  62 CALM      30.09F
RHINELANDER    CLOUDY    30  16  56 SW5       30.09F WCI  25
EAGLE RIVER    CLOUDY    32  20  60 CALM      30.08F
LAND O LAKES   CLOUDY    34  19  55 CALM      30.10F
PHILLIPS       CLOUDY    29  19  66 CALM      30.08F
TOMAHAWK       CLOUDY    30  16  56 CALM      30.11F
MEDFORD        CLOUDY    28  13  53 CALM      30.09F
MERRILL        CLOUDY    27  15  62 CALM        N/A
$$

WIZ029-030-035-036-043>047-162100-
CENTRAL WISCONSIN

CITY           SKY/WX    TMP DP  RH WIND       PRES   REMARKS
WAUSAU         CLOUDY    27  15  61 CALM      30.09F
MOSINEE        CLOUDY    28  18  64 NE5       30.11F WCI  23
MARSHFIELD     CLOUDY    26  15  63 NE7       30.08F WCI  18
STEVENS POINT  CLOUDY    29  18  62 CALM      30.12F
WAUPACA        CLOUDY    33  19  56 CALM      30.15F
WAUTOMA        MIX PCPN  31  25  78 NE9       30.12F WCI  23
WISC RAPIDS    CLOUDY    31  18  58 E6        30.11F WCI  25
CAMP DOUGLAS   DRIZZLE   32  28  86 E8        30.08F WCI  25
$$

WIZ011>013-019>022-031-037>040-048>050-162100-
NORTHEAST WISCONSIN

CITY           SKY/WX    TMP DP  RH WIND       PRES   REMARKS
ANTIGO         CLOUDY    24  15  69 CALM      30.11F
SHAWANO        CLOUDY    28  19  71 CALM      30.16F
OCONTO         CLOUDY    30  18  60 CALM      30.17F
STURGEON BAY   CLOUDY    33  18  53 S3        30.17F
GREEN BAY      CLOUDY    34  23  64 CALM      30.15F
MANITOWOC      NOT AVBL
APPLETON       DRIZZLE   32  18  55 E3        30.13F
CLINTONVILLE   CLOUDY    28  18  64 CALM      30.14F
OSHKOSH        MIX PCPN  31  21  66 E5        30.13F WCI  26
$$

WIZ032>034-041-042-053>061-162100-
SOUTHWEST WISCONSIN

CITY           SKY/WX    TMP DP  RH WIND       PRES   REMARKS
LA CROSSE      FRZ RAIN  33  25  72 NW6       30.07F WCI  28
SPARTA         MIX PCPN  31  28  86 E6        30.09F WCI  25
VIROQUA        CLOUDY    32  32 100 E8        30.03F WCI  25
BOSCOBEL       FRZ RAIN  33  31  92 NE5       30.07F FOG     WCI  29
PRAIRIE DU CHI MIX PCPN  33  32  96 E7        30.04F WCI  27
PLATTEVILLE    CLOUDY    33  33 100 E7        30.05F WCI  26
$$

WIZ056-057-062-063-064-067-068-162100-
SOUTH CENTRAL WISCONSIN

CITY           SKY/WX    TMP DP  RH WIND       PRES   REMARKS
REEDSBURG      DRIZZLE   31  31 100 E6        30.08F WCI  25
BARABOO/DELLS  MIX PCPN  32  30  94 E7        30.08F WCI  25
LONE ROCK      LGT RAIN  33  30  88 E9        30.08F FOG     WCI  25
MINERAL POINT  RAIN      34  34 100 E7        30.04F WCI  28
MADISON        FRZ RAIN  32  31  96 E9        30.08F FOG     WCI  24
MIDDLETON      CLOUDY    33  33 100 E6        30.09F WCI  28
WATERTOWN      CLOUDY    33  33 100 E8        30.10F FOG     WCI  26
MONROE         MIX PCPN  32  32 100 E8        30.05F VSB 1/2 WCI  25
JANESVILLE     RAIN      36  36 100 E9        30.07F WCI  29
$$

WIZ051-052-058>065-066-070>072-162100-
SOUTHEAST WISCONSIN

CITY           SKY/WX    TMP DP  RH WIND       PRES   REMARKS
MILWAUKEE      LGT RAIN  36  32  85 E8        30.13F WCI  30
WAUKESHA       CLOUDY    32  30  93 E9        30.12F FOG     WCI  24
MILWAUKEE/TIMM LGT RAIN  34  30  86 E6        30.14F FOG     WCI  29
RACINE         LGT RAIN  35  32  88 E8        30.14F FOG     WCI  29
KENOSHA        RAIN      35  33  92 E8        30.11F VSB 1/2 WCI  29
FOND DU LAC    MIX PCPN  35  26  69 E6        30.13F WCI  30
SHEBOYGAN      LGT RAIN  34  28  79 E6        30.15F WCI  29
WEST BEND      DRIZZLE   34  32  93 E6        30.13F WCI  29
JUNEAU         LGT RAIN  33  31  94 E6        30.12F WCI  27
$$

LSZ147-162-162100-
LAKE SUPERIOR

STATION/POSITION TIME  TEMP    WIND        PRES    WAVE
                       AIR SEA DIR/SP/G            HT/PER
                 (UTC) (F)     (DEG/KT/KT) (MB)    (FT/S)
DEVILS ISLAND    1900   31     240/ 14/ 15 1020.2F
PORT WING        1930   31     310/  3/  4 1019.3F
SAXON HARBOR     1940   33      40/  3/  5 1019.3F
$$

LMZ867-665-643>646-162100-
LAKE MICHIGAN

STATION/POSITION TIME  TEMP    WIND        PRES    WAVE
                       AIR SEA DIR/SP/G            HT/PER
                 (UTC) (F)     (DEG/KT/KT) (MB)    (FT/S)
NORTHPORT PIER   1940   29      CALM  /  1 1021.3F
SISTER BAY       1950   33     200/  5/  6   N/A
KEWAUNEE LAKESHO 1930   31      60/  3/  3 1021.5F
SHEBOYGAN LAKESH 1900   32      CALM  /  1 1022.7F
PORT WASHINGTON  1930   33      40/  6/  7 1022.0F
MILWAUKEE LAKESH 1930   33      50/  6/  7   N/A
KENOSHA   LAKESH 1900   33      80/  5/  6 1021.0
$$

TC  - TEMPERATURE IN CELSIUS
VSB - VISIBILITY IN STATUTE MILES
WCI - WIND CHILL INDEX
HX  - HEAT INDEX





USA.gov is the U.S. government's official web portal to all federal, state and local government web resources and services.